Wind_Speed
25 26 35 46 37 34 36 35 33 30 41 43 51 56 60 58 42 27 22 21 18 17 11 9 9 9 10 12 10 18 33 31 29 25 23 22 23 24 24 21 18 19 19 19 22 27 21 21 20
27 19 43 45 37 33 36 36 37 36 43 46 53 58 63 59 42 25 25 25 21 17 13 12 12 10 9 8 12 16 23 28 25 24 24 23 22 22 21 20 20 20 20 29 28 27 21 16 19
33 25 31 43 43 35 37 41 36 32 38 46 51 57 64 56 39 28 25 24 21 19 19 18 17 16 15 11 9 10 12 14 17 19 20 20 20 21 20 20 19 22 31 28 30 21 17 16 18
28 20 27 43 42 38 41 43 45 38 42 46 50 57 58 54 35 25 23 26 24 23 22 18 16 15 15 15 14 12 9 8 9 13 17 20 19 18 19 20 20 28 35 28 26 23 19 19 20
28 25 37 42 45 42 39 41 44 40 40 44 48 52 56 55 36 23 24 25 24 22 21 17 12 11 10 8 6 5 6 8 10 13 16 19 18 18 19 19 21 27 35 29 27 25 18 19 19
30 35 39 40 40 44 45 42 45 44 41 41 47 52 54 52 34 20 24 22 22 21 21 18 14 12 10 7 5 2 7 12 14 16 16 19 19 19 19 20 21 25 33 31 30 26 21 21 18
34 36 38 39 39 42 43 41 40 43 39 39 45 49 51 51 35 15 21 21 26 25 24 23 20 20 20 20 19 15 6 5 15 20 21 22 22 19 20 20 23 25 31 31 31 26 22 19 15
39 38 39 42 43 40 43 37 34 39 38 38 40 43 48 47 48 14 17 21 25 26 24 24 24 24 23 22 21 21 20 15 4 16 22 22 25 23 19 19 23 30 31 30 31 26 23 15 12
40 39 42 43 41 41 43 38 36 37 41 36 34 38 44 48 48 26 14 19 22 25 26 27 22 20 19 19 16 21 24 20 18 9 21 21 22 25 22 21 25 32 31 27 28 27 21 14 7
41 40 40 42 41 41 41 44 38 34 36 33 31 34 40 44 44 39 8 13 17 21 24 26 25 19 20 20 16 18 23 25 18 15 17 22 21 21 22 23 26 30 31 28 25 24 20 10 12
45 44 42 43 42 41 42 45 39 31 33 31 29 31 36 39 40 40 21 6 9 13 19 21 22 27 24 18 17 16 20 23 23 16 14 16 19 20 21 23 27 28 33 30 25 26 17 11 16
46 47 46 45 47 41 40 41 40 29 31 32 25 26 31 34 36 36 34 6 7 9 10 15 17 19 22 23 24 21 20 23 22 19 15 17 13 16 19 21 27 27 27 29 28 24 13 12 15
48 48 49 47 48 45 41 42 38 31 29 29 21 23 27 29 32 31 31 25 5 2 5 8 12 15 15 20 21 24 24 23 20 17 13 9 10 15 16 22 28 30 25 24 22 19 16 16 18
48 49 50 51 51 49 42 38 35 32 28 26 19 21 24 26 29 29 29 28 18 8 5 5 3 6 12 9 12 16 19 21 19 15 13 11 10 11 13 17 24 31 31 26 24 20 16 14 17
51 52 54 54 51 49 46 42 35 35 33 27 22 18 20 21 27 27 24 27 26 19 14 12 12 7 7 5 6 11 9 10 15 12 7 8 11 10 12 14 17 25 32 27 25 24 21 21 17
54 56 56 53 51 51 47 45 35 38 37 31 28 18 16 15 23 26 21 23 25 27 24 15 15 16 12 9 4 9 13 12 9 9 7 4 4 9 12 12 12 18 29 29 25 21 22 21 18
62 64 61 57 54 54 50 48 42 38 37 33 29 28 15 16 17 21 20 17 20 25 28 23 16 18 17 17 14 10 9 15 14 15 7 1 3 1 9 14 16 17 21 24 24 25 24 20 23
70 69 63 59 58 56 53 51 51 39 37 31 29 28 24 17 16 18 19 18 16 21 24 25 26 22 20 20 21 18 14 13 16 18 13 9 8 3 6 12 20 22 21 20 22 24 23 22 21
71 64 63 59 61 60 57 55 51 45 41 34 32 29 24 19 18 18 18 17 17 16 23 25 26 28 21 21 25 23 26 16 13 19 17 17 9 14 6 14 20 22 26 27 23 21 22 21 24
77 71 65 64 62 58 57 52 51 50 44 41 35 30 26 21 22 20 21 22 20 19 20 22 22 28 31 31 29 24 15 18 17 18 14 16 18 19 18 15 17 23 25 28 27 25 25 26 25
76 73 68 65 65 59 58 51 49 52 46 41 34 28 27 21 20 24 24 26 27 25 26 29 24 26 26 32 33 33 25 21 19 17 12 12 16 15 18 19 17 17 23 29 30 31 31 29 28
78 73 73 70 68 61 59 50 49 54 46 40 34 29 28 23 24 25 26 30 31 30 30 33 31 32 32 30 31 30 35 28 24 25 22 16 15 18 14 14 18 20 22 25 32 32 31 32 32
82 80 76 73 68 63 61 56 57 57 48 41 36 32 29 26 26 29 27 30 34 33 33 35 35 35 38 36 32 27 32 36 32 27 27 23 18 17 22 18 19 21 21 26 31 35 34 34 35
90 87 81 75 69 62 64 66 60 57 52 43 37 37 35 31 32 31 31 35 35 38 37 39 39 40 36 35 33 29 25 37 37 35 31 25 24 18 22 22 21 21 22 22 26 35 34 32 34
93 91 86 77 69 59 76 68 62 59 54 46 43 38 36 38 36 36 35 37 38 39 40 41 43 41 39 37 32 28 25 23 37 42 38 34 25 23 19 20 26 22 20 22 24 24 27 35 37
96 93 88 79 73 68 78 63 65 59 53 50 47 40 42 42 42 39 41 43 44 43 44 45 44 38 41 38 33 30 19 17 25 43 43 37 33 23 22 27 20 15 17 22 27 28 25 25 27
96 97 87 85 78 75 72 66 67 64 55 52 49 46 46 47 47 44 46 47 48 48 47 48 41 36 39 39 33 24 13 13 38 38 43 43 38 28 22 22 20 18 19 23 25 23 21 26 34
96 97 98 89 83 76 75 72 70 66 59 54 52 47 47 49 50 48 50 49 52 51 47 45 35 32 37 45 33 27 23 32 40 35 40 43 39 31 29 27 24 25 18 6 9 12 15 19 20
89 94 95 91 85 78 76 79 72 68 61 58 54 53 51 52 55 54 55 53 52 46 45 39 33 44 52 42 33 30 24 29 37 40 32 41 44 38 34 30 33 28 28 16 8 4 7 7 9
78 86 94 92 84 81 82 84 76 70 64 60 57 56 55 54 55 59 63 60 46 45 34 27 38 50 47 37 34 26 22 27 28 39 29 27 40 42 34 36 36 30 28 29 24 18 14 11 19
Wind_Direction
30 33 22 22 7 356 3 9 5 12 9 5 4 6 5 4 9 8 19 20 32 37 38 41 47 45 64 82 118 176 193 203 211 215 228 234 235 240 235 218 206 198 191 184 173 158 164 143 180
360 348 3 16 359 354 7 7 9 10 5 4 5 4 7 7 13 17 25 32 36 38 38 45 51 48 61 92 148 165 187 203 219 230 233 233 228 216 198 192 193 195 178 163 164 149 144 170 182
350 330 329 11 355 0 9 14 17 16 8 7 9 4 8 10 18 24 27 31 39 46 55 65 73 71 69 82 141 174 197 210 218 220 215 205 197 191 187 190 192 180 164 162 158 150 158 159 155
8 352 337 349 353 8 7 10 16 15 16 10 9 10 9 15 23 32 37 50 55 53 52 54 62 69 74 79 86 104 129 155 181 189 187 183 183 184 188 183 181 172 169 158 162 152 139 143 153
340 331 334 346 344 0 5 8 12 13 15 8 11 10 11 15 24 49 55 52 48 45 47 39 41 47 49 58 77 110 150 171 181 191 188 180 179 177 184 180 178 176 176 164 166 164 148 150 149
325 326 333 340 343 355 1 1 7 11 12 8 10 9 13 19 28 56 57 60 47 40 35 33 40 59 60 39 14 286 219 210 204 195 188 183 182 183 185 182 182 181 177 174 169 170 159 152 145
324 324 331 330 342 346 357 358 5 6 10 12 11 9 12 24 32 68 60 53 50 37 37 44 57 68 72 74 71 63 51 216 211 204 198 193 187 185 183 182 184 182 171 173 171 168 160 154 147
319 323 325 330 340 343 346 354 4 4 8 14 13 7 11 24 28 70 58 54 51 46 42 46 62 70 76 73 66 66 64 66 137 196 195 189 188 190 187 189 185 178 171 168 170 174 161 152 157
318 322 322 329 333 343 339 352 0 2 6 11 15 8 12 15 24 39 66 52 58 53 46 43 51 60 55 57 55 61 62 72 68 147 183 184 182 190 189 191 186 181 176 174 171 175 153 159 195
308 312 319 322 327 335 337 347 351 357 1 9 15 12 10 13 15 27 58 48 50 48 41 40 43 55 56 51 53 62 66 67 58 85 157 180 185 185 187 190 188 186 179 183 185 181 169 180 191
306 310 311 315 320 330 337 341 345 354 358 9 7 11 12 11 14 17 35 74 39 41 39 39 50 48 45 46 50 55 63 66 70 71 117 150 158 167 176 188 189 192 188 187 176 175 165 165 189
303 305 307 312 317 325 330 335 342 348 357 5 7 13 10 11 22 11 26 77 65 23 45 45 54 55 54 50 51 53 58 64 69 88 112 137 157 173 174 190 194 192 190 186 183 184 188 178 201
297 300 303 307 310 317 324 329 333 340 346 0 5 10 11 12 22 18 20 25 28 39 8 28 64 63 59 66 61 54 57 57 55 68 108 124 153 170 172 187 199 195 190 190 188 192 188 195 219
293 293 296 298 304 308 314 322 327 331 337 350 1 7 19 7 19 10 1 3 13 352 289 317 21 39 56 39 38 32 33 39 43 50 67 97 136 165 176 184 199 206 202 203 207 210 213 212 223
288 290 290 294 300 303 308 309 316 322 328 335 354 8 14 14 21 5 354 352 349 354 354 280 289 309 343 32 51 17 332 341 22 26 31 67 119 148 181 190 203 210 211 199 210 218 219 234 234
283 284 285 288 294 299 300 306 305 311 318 327 337 349 1 17 22 16 355 344 340 334 336 333 276 281 295 289 301 0 337 309 328 356 23 36 85 154 166 186 192 198 209 214 214 218 223 226 232
275 276 279 284 287 290 294 299 299 305 309 317 323 333 342 353 19 18 4 339 331 327 328 326 311 267 273 269 277 284 312 303 299 301 262 54 78 122 202 199 196 205 208 219 223 227 234 234 232
268 270 274 279 280 284 289 292 295 296 302 308 315 323 324 336 353 347 14 358 346 335 327 327 319 317 263 275 277 273 284 254 275 297 274 252 242 244 228 213 205 200 202 217 224 225 235 236 240
265 265 269 271 275 280 284 285 289 292 294 299 304 312 317 305 315 333 335 358 0 349 335 329 314 307 289 281 276 294 274 266 252 271 266 279 269 253 253 231 218 222 213 216 223 229 225 228 233
261 262 264 267 268 272 276 280 284 287 288 290 294 306 301 289 305 314 319 331 347 352 342 335 318 308 299 289 287 297 292 264 251 257 253 266 274 258 263 239 231 229 232 219 223 233 239 241 239
254 256 256 258 261 263 269 274 277 281 282 286 291 296 291 290 294 303 314 324 326 339 338 347 338 329 311 296 281 276 282 264 249 241 247 261 258 255 232 235 241 240 236 237 235 228 230 238 244
249 248 250 252 258 261 266 267 268 270 275 280 288 288 287 295 286 294 309 313 320 331 329 337 335 330 327 304 298 284 264 261 253 242 241 255 266 244 231 252 250 249 244 241 239 239 239 241 233
243 243 243 246 251 254 258 256 259 266 272 276 280 281 284 286 290 292 303 306 315 320 321 328 331 326 326 314 299 283 266 256 254 249 255 256 264 248 243 276 281 271 268 245 238 241 245 243 240
240 242 244 245 248 252 255 256 257 264 266 270 273 280 285 287 290 295 300 303 311 313 318 321 325 326 323 314 303 296 271 254 247 249 250 260 248 256 259 272 278 278 261 243 240 243 247 243 245
238 240 242 242 245 245 249 255 255 258 262 264 267 270 279 281 285 290 294 301 304 310 315 318 321 320 321 316 308 302 287 280 252 249 248 252 247 250 255 267 275 263 255 259 247 242 245 245 251
237 238 239 241 241 240 247 252 254 254 257 260 266 271 273 278 282 289 295 299 305 310 314 312 318 321 324 315 311 306 310 325 286 250 245 244 247 244 249 261 259 262 288 278 277 276 288 267 261
235 237 237 237 238 241 246 248 253 254 253 259 262 268 273 277 282 289 297 302 306 308 306 305 311 310 330 318 304 300 264 289 261 256 248 241 243 238 229 236 244 267 281 274 274 277 283 279 277
233 232 234 235 236 240 246 247 248 253 255 259 263 267 272 277 285 290 290 293 297 299 297 302 303 310 312 317 296 287 270 241 246 253 243 231 235 228 228 233 238 253 271 263 298 293 294 295 303
234 234 235 237 236 238 243 247 248 250 254 257 262 265 269 275 279 285 288 292 297 295 295 295 303 315 319 308 289 286 277 245 240 235 237 232 231 233 236 236 243 253 258 251 287 282 300 303 320
234 234 233 234 235 236 240 247 248 252 254 260 264 266 271 278 284 289 294 293 281 293 293 279 304 312 316 305 292 288 269 252 240 230 216 226 230 229 231 239 251 254 254 249 254 259 292 290 304
Height
11025 11020 11014 11007 11007 11006 10999 10992 10986 10982 10975 10968 10960 10951 10941 10928 10916 10906 10901 10898 10895 10895 10896 10894 10892 10891 10891 10891 10893 10897 10903 10910 10915 10918 10922 10926 10929 10932 10935 10937 10941 10944 10949 10951 10956 10960 10963 10964 10969
11029 11023 11014 11010 11013 11007 10999 10994 10987 10979 10976 10969 10960 10949 10936 10926 10915 10907 10902 10900 10900 10900 10899 10897 10895 10895 10896 10896 10898 10900 10905 10909 10914 10917 10920 10923 10926 10929 10933 10936 10940 10944 10948 10951 10956 10959 10962 10965 10968
11027 11020 11017 11014 11014 11003 10999 10992 10990 10988 10980 10969 10963 10951 10934 10929 10918 10909 10906 10905 10903 10902 10901 10899 10898 10898 10898 10899 10901 10904 10907 10910 10912 10915 10918 10921 10924 10928 10932 10936 10940 10944 10948 10952 10956 10959 10963 10965 10969
11026 11021 11019 11017 11015 11006 10996 10990 10987 10982 10978 10973 10965 10951 10945 10931 10925 10917 10913 10910 10908 10906 10905 10905 10903 10902 10902 10903 10904 10905 10908 10910 10912 10914 10917 10920 10923 10928 10932 10936 10940 10945 10949 10952 10956 10960 10964 10967 10969
11026 11023 11019 11016 11013 11006 11002 10993 10988 10984 10980 10976 10967 10959 10948 10936 10927 10922 10918 10915 10913 10911 10908 10907 10905 10904 10905 10906 10907 10908 10909 10911 10913 10915 10917 10920 10922 10927 10932 10936 10941 10946 10949 10953 10957 10961 10965 10967 10970
11026 11022 11019 11017 11013 11004 10999 10994 10988 10985 10981 10976 10969 10959 10951 10941 10929 10925 10922 10920 10918 10915 10912 10909 10906 10904 10905 10906 10906 10907 10907 10909 10911 10915 10917 10920 10924 10927 10932 10936 10941 10945 10950 10955 10958 10963 10966 10967 10970
11023 11021 11017 11017 11012 11008 11003 10998 10992 10989 10984 10979 10971 10962 10954 10948 10938 10931 10928 10926 10920 10919 10917 10914 10911 10909 10908 10908 10908 10908 10907 10907 10907 10910 10915 10920 10925 10929 10933 10937 10940 10946 10950 10955 10959 10964 10966 10968 10970
11018 11015 11016 11012 11007 11006 11005 11000 10998 10992 10987 10980 10975 10966 10956 10949 10942 10935 10934 10928 10925 10924 10922 10921 10919 10916 10915 10914 10913 10911 10909 10907 10906 10908 10914 10918 10924 10929 10934 10938 10941 10947 10952 10956 10960 10963 10965 10968 10970
11016 11015 11013 11010 11008 11004 11001 11000 10996 10993 10989 10982 10977 10969 10960 10951 10944 10940 10938 10935 10932 10930 10928 10926 10925 10923 10921 10919 10917 10915 10913 10911 10909 10909 10913 10919 10925 10929 10934 10938 10943 10948 10953 10957 10960 10962 10964 10967 10970
11013 11012 11010 11009 11008 11005 11001 10997 10997 10994 10992 10985 10980 10971 10963 10956 10947 10945 10939 10938 10936 10934 10933 10932 10929 10928 10926 10924 10922 10920 10917 10915 10914 10913 10916 10921 10925 10929 10935 10939 10944 10948 10954 10958 10961 10962 10964 10967 10969
11006 11006 11007 11005 11006 11004 10999 10997 10997 10995 10992 10986 10981 10973 10967 10962 10953 10946 10942 10941 10940 10939 10937 10937 10935 10934 10932 10930 10928 10925 10922 10921 10919 10918 10920 10924 10928 10931 10936 10940 10944 10948 10954 10958 10961 10963 10965 10967 10969
11002 11003 11002 11001 11000 11001 11001 10999 10997 10996 10991 10987 10984 10977 10970 10967 10959 10951 10947 10945 10944 10942 10941 10941 10940 10939 10938 10935 10932 10930 10928 10926 10925 10924 10926 10928 10931 10935 10937 10941 10945 10948 10952 10957 10959 10963 10965 10966 10968
10998 10997 10995 10997 10997 10999 11000 11000 10998 10995 10991 10990 10987 10981 10973 10969 10961 10956 10951 10948 10946 10945 10943 10944 10944 10942 10942 10941 10937 10936 10934 10933 10932 10930 10930 10932 10934 10936 10940 10942 10946 10948 10952 10956 10959 10961 10964 10966 10967
10992 10991 10991 10991 10993 10993 10995 10998 10997 10994 10992 10989 10988 10982 10975 10971 10963 10959 10954 10951 10948 10946 10946 10946 10945 10943 10942 10941 10941 10940 10939 10938 10937 10935 10935 10934 10934 10937 10940 10943 10946 10949 10952 10955 10958 10960 10963 10964 10966
10986 10984 10983 10986 10987 10988 10989 10989 10993 10991 10989 10987 10985 10981 10976 10973 10965 10960 10956 10952 10950 10948 10946 10946 10944 10944 10943 10943 10943 10942 10941 10942 10940 10938 10938 10936 10935 10936 10939 10942 10945 10947 10952 10954 10957 10959 10961 10962 10963
10976 10973 10974 10978 10981 10982 10983 10982 10985 10987 10986 10983 10979 10981 10978 10975 10966 10963 10959 10953 10951 10949 10946 10946 10944 10944 10944 10942 10942 10941 10941 10941 10941 10941 10941 10939 10939 10937 10938 10942 10944 10946 10950 10953 10955 10958 10959 10960 10961
10966 10960 10964 10968 10972 10972 10976 10976 10975 10982 10982 10982 10979 10975 10976 10970 10967 10965 10961 10957 10953 10949 10945 10945 10944 10944 10944 10944 10943 10943 10941 10940 10940 10941 10943 10941 10940 10939 10939 10941 10943 10946 10948 10950 10952 10954 10957 10958 10959
10949 10949 10953 10957 10959 10963 10968 10969 10968 10971 10974 10976 10977 10974 10969 10966 10966 10965 10963 10958 10954 10950 10946 10943 10941 10941 10941 10940 10939 10940 10941 10940 10940 10939 10941 10941 10939 10938 10938 10940 10942 10943 10946 10948 10950 10952 10954 10956 10957
10934 10940 10942 10945 10947 10952 10957 10960 10960 10962 10964 10968 10971 10972 10967 10964 10963 10963 10962 10958 10953 10950 10943 10941 10940 10937 10935 10935 10936 10936 10936 10938 10937 10937 10937 10937 10937 10937 10937 10938 10939 10942 10942 10944 10946 10949 10950 10950 10952
10921 10926 10931 10932 10934 10940 10945 10949 10951 10950 10954 10958 10964 10966 10963 10961 10957 10958 10955 10953 10950 10948 10946 10939 10936 10934 10933 10932 10930 10930 10931 10933 10933 10933 10933 10933 10934 10935 10936 10936 10936 10937 10939 10940 10941 10944 10946 10946 10949
10906 10912 10915 10919 10918 10927 10932 10940 10942 10939 10941 10947 10954 10959 10957 10955 10954 10951 10947 10945 10943 10943 10940 10937 10932 10929 10927 10924 10924 10925 10927 10928 10929 10928 10929 10929 10931 10932 10933 10934 10935 10934 10935 10936 10937 10939 10941 10942 10944
10889 10895 10896 10901 10904 10914 10918 10929 10930 10926 10932 10938 10944 10947 10947 10949 10946 10945 10941 10938 10937 10935 10933 10932 10928 10923 10920 10916 10916 10917 10918 10921 10922 10923 10924 10926 10927 10929 10930 10931 10931 10931 10931 10932 10933 10934 10935 10936 10938
10870 10870 10878 10885 10894 10901 10904 10911 10911 10913 10923 10929 10933 10936 10939 10941 10940 10936 10936 10934 10931 10931 10928 10925 10923 10918 10912 10907 10907 10908 10908 10912 10914 10918 10918 10921 10922 10924 10926 10927 10928 10928 10927 10927 10928 10928 10929 10931 10932
10847 10850 10860 10872 10883 10894 10887 10888 10896 10903 10910 10919 10924 10923 10925 10929 10928 10929 10928 10926 10925 10922 10918 10917 10916 10912 10905 10899 10897 10898 10900 10901 10906 10908 10913 10914 10917 10919 10920 10921 10922 10922 10922 10920 10921 10922 10923 10923 10925
10824 10835 10845 10858 10870 10888 10859 10878 10883 10888 10897 10907 10912 10918 10918 10917 10918 10918 10920 10917 10916 10913 10909 10907 10906 10902 10897 10892 10889 10886 10889 10892 10896 10900 10904 10906 10910 10912 10914 10915 10914 10915 10914 10916 10916 10916 10917 10917 10919
10805 10815 10830 10844 10853 10863 10847 10874 10867 10877 10887 10894 10900 10907 10905 10904 10907 10910 10907 10905 10904 10901 10898 10896 10895 10891 10886 10879 10880 10880 10883 10885 10885 10888 10892 10896 10901 10905 10908 10909 10910 10911 10910 10910 10910 10912 10911 10910 10911
10789 10796 10818 10821 10835 10843 10848 10857 10854 10859 10875 10882 10888 10893 10892 10892 10893 10897 10893 10891 10888 10890 10889 10886 10885 10882 10879 10873 10871 10873 10877 10879 10874 10872 10878 10886 10890 10894 10898 10900 10902 10904 10904 10903 10902 10902 10902 10902 10903
10765 10782 10785 10805 10818 10831 10832 10837 10842 10848 10861 10871 10874 10882 10882 10881 10883 10886 10887 10888 10885 10882 10879 10877 10871 10870 10866 10866 10862 10863 10863 10864 10861 10862 10866 10872 10879 10884 10888 10891 10893 10895 10897 10895 10895 10894 10893 10894 10894
10754 10764 10775 10792 10803 10817 10819 10813 10830 10840 10851 10858 10865 10869 10874 10877 10877 10879 10878 10877 10874 10871 10868 10866 10864 10862 10857 10853 10853 10851 10851 10851 10851 10852 10857 10863 10869 10874 10879 10883 10886 10888 10888 10888 10888 10886 10887 10887 10887
10741 10750 10757 10769 10791 10801 10801 10797 10816 10826 10840 10845 10852 10858 10864 10865 10864 10862 10862 10861 10860 10859 10856 10856 10856 10852 10846 10843 10842 10841 10839 10840 10842 10844 10846 10852 10858 10863 10869 10874 10877 10879 10880 10880 10879 10879 10878 10880 10879